Hamilton, OH

11:44 PM EDT on March 25, 2017 (GMT -0400)
Butler County Regional

Weather History for KHAO - June, 2013

Change the Weather History Date:

Wednesday, June 12, 2013

  Actual Average (KLUK) Record (KLUK)
Temperature  
Mean Temperature 84 °F -  
Max Temperature 89 °F 83 °F 95 °F (1964)
Min Temperature 78 °F 60 °F 47 °F (1950)
Cooling Degree Days 18    
Growing Degree Days 34 (Base 50)    
Moisture  
Dew Point 72 °F    
Average Humidity 67    
Maximum Humidity 79    
Minimum Humidity 55    
Precipitation  
Precipitation 0.00 in - - ()
Sea Level Pressure  
Sea Level Pressure 29.87 in    
Wind  
Wind Speed 5 mph (SW)    
Max Wind Speed 12 mph    
Max Gust Speed 17 mph    
Visibility 10 miles    
Events      
Averages and records for this station are not official NWS values.
T = Trace of Precipitation, MM = Missing Value Source: NWS Daily Summary

Daily Weather History Graph

Daily Weather History Graph

Search for Another Location

Airport or City:

Trip Planner

Search our weather history database for the weather conditions in past years. The results will help you decide how hot, cold, wet, or windy it might be!

Date:

Astronomy

Jun. 12, 2013 Rise Set
Actual Time 6:10 AM EDT 9:05 PM EDT
Civil Twilight 5:38 AM EDT 9:37 PM EDT
Nautical Twilight 4:57 AM EDT 10:18 PM EDT
Astronomical Twilight 4:10 AM EDT 11:05 PM EDT
Moon 9:48 AM EDT (6/12) 11:42 PM EDT (6/12)
Length of Visible Light 15h 59m
Length of Day
14h 54m
Waxing Crescent, 14% of the Moon is Illuminated
Jun 12
Waxing Crescent
Jun 16
First Quarter
Jun 23
Full
Jun 30
Last Quarter
Jul 8
New

Hourly Weather History & Observations

Time (EDT) Temp. Heat Index Dew Point Humidity Pressure Visibility Wind Dir Wind Speed Gust Speed Precip Events Conditions
12:53 AM - - - N/A% 29.92 in - North - - N/A   Unknown
1:53 AM - - - N/A% 29.92 in - North - - N/A   Unknown
2:53 AM - - - N/A% 29.91 in - North - - N/A   Unknown
3:53 AM - - - N/A% 29.90 in - North - - N/A   Unknown
4:53 AM - - - N/A% 29.91 in - North - - N/A   Unknown
5:53 AM - - - N/A% 29.92 in - North - - N/A   Unknown
6:53 AM - - - N/A% 29.93 in - North - - N/A   Unknown
7:53 AM - - - N/A% 29.94 in - North - - N/A   Unknown
9:53 AM 78.1 °F - 71.1 °F 79% 29.95 in 8.0 mi Variable 3.5 mph - N/A   Clear
10:53 AM 81.0 °F 85.8 °F 73.0 °F 77% 29.95 in 10.0 mi Variable 3.5 mph - N/A   Clear
11:53 AM 84.0 °F 91.2 °F 73.9 °F 72% 29.95 in 10.0 mi West 6.9 mph - N/A   Clear
12:53 PM 82.9 °F 89.4 °F 73.9 °F 74% 29.94 in 10.0 mi SSW 4.6 mph - N/A   Clear
1:53 PM 87.1 °F 96.3 °F 75.0 °F 67% 29.91 in 10.0 mi WSW 5.8 mph - N/A   Clear
2:53 PM 89.1 °F 99.1 °F 75.0 °F 63% 29.88 in 10.0 mi South 8.1 mph - N/A   Partly Cloudy
3:53 PM 89.1 °F 98.0 °F 73.9 °F 61% 29.84 in 10.0 mi Variable 6.9 mph - N/A   Clear
4:53 PM 89.1 °F 95.0 °F 71.1 °F 55% 29.82 in 10.0 mi SW 8.1 mph - N/A   Clear
5:53 PM 88.0 °F 95.6 °F 73.0 °F 61% 29.82 in 10.0 mi SW 4.6 mph - N/A   Clear
6:53 PM 89.1 °F 95.0 °F 71.1 °F 55% 29.79 in 10.0 mi SW 11.5 mph 16.1 mph N/A   Clear
7:53 PM 87.1 °F 92.8 °F 71.1 °F 59% 29.79 in 10.0 mi Variable 5.8 mph - N/A   Clear
8:53 PM 82.9 °F 88.0 °F 72.0 °F 69% 29.78 in 10.0 mi Calm Calm - N/A   Clear
9:53 PM 81.0 °F 84.9 °F 71.1 °F 72% 29.75 in 10.0 mi SW 4.6 mph - N/A   Clear
10:53 PM 82.9 °F 87.5 °F 71.1 °F 67% 29.73 in 10.0 mi SSW 8.1 mph - N/A   Clear
11:53 PM 82.9 °F 87.5 °F 71.1 °F 67% 29.73 in 10.0 mi SW 10.4 mph 17.3 mph N/A   Partly Cloudy